Content
SEND FEEDBACK

Daily
Averages
Monthly
Summary
United States of America

CABOT, ARKANSAS


Home > North America > United States > Arkansas
Elevation: 279 feet     Latitude: 34 57N     Longitude: 092 05W

WEATHER
 
SELECT A DAY
Number of Records: 209,237;   Date Range: 1/1/95 - 10/29/14
 
SHARE

PRINT THIS DATA

[ ← Previous Day ]
WEATHER ALMANAC - JANUARY 31, 2013
[ Next Day → ]
[ °C ]   °F
Weather ElementAverageHighLow
Temperature46.2 °F61.3 °F (2:58 pm) (9:58 am)
Dewpoint24.8 °F32 °F (6:46 pm) (7:00 pm)
Humidity47.3 %87 % (8:59 am)25 % (2:28 pm)
Barometer29.30 in30.40 in (11:58 pm) (7:00 pm)
Wind Speed9.2 mph16.1 mph (2:35 pm)
Wind Gust27.6 mph (6:46 pm)
Weather ElementAverage
Visibility9.7 mi
Wind DirectionWSW (236.7 °)

Weather ElementTotal
Precipitation---
Heating Degree Days34.4 (Base 65)
Averaged from 36 records on January 31, 2013
WEATHER CONDITIONS BREAKOUT
WIND DIRECTION BREAKOUT
WEATHER BY HOUR - JANUARY 31, 2013
[ °C ]   °F
Local TimeTemperatureDewpointHumidityBarometerVisibilityWind DirectionWind SpeedGust SpeedPrecipitationEventsConditions
1:58 AM30.2 °F25.0 °F81 %30.10 in10.0 miWSW (250°)4.6 mphClear
2:58 AM28.6 °F24.6 °F85 %30.10 in10.0 miWest (270°)4.6 mphClear
3:58 AM29.1 °F24.6 °F83 %30.09 in10.0 miSW (230°)5.8 mphClear
4:58 AM28.2 °F24.3 °F85 %30.11 in10.0 miWSW (240°)5.8 mphClear
5:58 AM28.6 °F24.1 °F83 %30.14 in10.0 miVariable2.3 mphClear
6:58 AM29.3 °F24.6 °F83 %30.16 in10.0 miSW (220°)3.5 mphClear
7:59 AM30.2 °F26.6 °F86 %30.16 in7.0 miSSW (210°)3.5 mphClear
8:59 AM32.0 °F28.4 °F87 %30.17 in7.0 miSW (220°)3.5 mphClear
9:55 AM42.8 °F28.4 °F57 %30.16 in7.0 miSW (220°)4.6 mphClear
9:58 AM0.0 °F0.0 °FNorthClear
10:25 AM46.4 °F28.4 °F50 %30.16 in10.0 miSW (220°)5.8 mph
10:58 AM48.2 °F26.8 °F43 %30.17 in10.0 miVariable4.6 mphClear
11:03 AM48.2 °F26.6 °F43 %30.15 in10.0 miWest (260°)5.8 mphRainLight Rain
11:58 AM52.7 °F26.2 °F36 %30.14 in10.0 miWSW (240°)8.1 mphClear
12:45 PM57.2 °F24.8 °F29 %30.10 in10.0 miWSW (250°)10.4 mphRainLight Rain
12:54 PM57.2 °F24.8 °F29 %30.10 in10.0 miWest (270°)9.2 mphClear
12:58 PM57.0 °F25.5 °F30 %30.12 in10.0 miWSW (240°)9.2 mphClear
1:42 PM59.0 °F24.8 °F27 %30.08 in10.0 miWSW (240°)12.7 mphLight Drizzle
1:47 PM59.0 °F24.8 °F27 %30.08 in10.0 miSW (220°)10.4 mphClear
1:58 PM59.2 °F25.7 °F28 %30.09 in10.0 miSSW (210°)8.1 mphClear
2:28 PM60.8 °F24.8 °F25 %30.06 in10.0 miWSW (240°)10.4 mph19.6 mphLight Drizzle
2:35 PM60.8 °F24.8 °F25 %30.06 in10.0 miWSW (240°)16.1 mphClear
2:49 PM60.8 °F26.6 °F27 %30.05 in10.0 miWSW (240°)12.7 mph18.4 mphClear
2:58 PM61.3 °F25.9 °F26 %30.07 in10.0 miSW (220°)15.0 mph19.6 mphClear
3:02 PM60.8 °F24.8 °F25 %30.06 in10.0 miWSW (240°)12.7 mph19.6 mphLight Drizzle
3:11 PM60.8 °F26.6 °F27 %30.06 in10.0 miSSW (200°)12.7 mph19.6 mphClear
3:58 PM60.4 °F28.6 °F30 %30.09 in10.0 miSouth (190°)10.4 mphClear
4:58 PM59.5 °F25.0 °F27 %30.09 in10.0 miWSW (240°)13.8 mphClear
5:58 PM53.4 °F28.4 °F38 %30.13 in10.0 miNNW (340°)3.5 mphPartly Cloudy
6:46 PM48.2 °F32.0 °F54 %30.16 in10.0 miNNW (330°)16.1 mph27.6 mphScattered Clouds
6:58 PM50.4 °F27.5 °F41 %30.19 in10.0 miNNW (340°)12.7 mph20.7 mphScattered Clouds
7:58 PM47.8 °F27.5 °F45 %30.22 in10.0 miNNW (340°)8.1 mphClear
8:58 PM44.1 °F27.5 °F52 %30.27 in10.0 miNNW (330°)13.8 mph18.4 mphScattered Clouds
9:58 PM39.9 °F23.7 °F52 %30.31 in10.0 miNNW (330°)13.8 mph24.2 mphMostly Cloudy
10:58 PM36.7 °F18.7 °F48 %30.37 in10.0 miNorth (350°)15.0 mph21.9 mphClear
11:58 PM33.8 °F12.0 °F41 %30.40 in10.0 miNNW (340°)13.8 mph23.0 mphClear
Hourly data recorded from KLRF, located miles away from Cabot, Arkansas







STORIES FROM OUR PARTNERS